W9JOL Weather Reports


Display with metric or nautical units.
time (UTC)temp
F
wind
direction
speed
MPH
gust
MPH
rain 1hr
in
rain 24hr
in
rain mn
in
humidity
%
barometer
mb
20260906115526 64 336 0.0 1.0 0.00 0.00 0.00 94 1017.8
20260906115025 64 0 0.0 2.0 0.00 0.00 0.00 93 1017.6
20260906114531 64 0 0.0 2.0 0.00 0.00 0.00 93 1017.6
20260906114031 64 0 0.0 2.0 0.00 0.00 0.00 93 1017.5
20260906113531 64 0 0.0 1.0 0.00 0.00 0.00 93 1017.3
20260906113302 64 0 0.0 2.0 0.00 0.00 0.00 93 1017.3
20260906112527 64 0 0.0 2.0 0.00 0.00 0.00 93 1017.4
20260906112028 64 68 1.0 2.0 0.00 0.00 0.00 93 1017.3
20260906111759 64 340 0.0 2.0 0.00 0.00 0.00 93 1017.3
20260906111027 64 33 0.0 2.0 0.00 0.00 0.00 93 1017.3
20260906110530 65 49 0.0 2.0 0.00 0.00 0.00 93 1017.3
20260906110030 65 0 0.0 1.0 0.00 0.00 0.00 93 1017.2
20260906105529 65 0 0.0 1.0 0.00 0.00 0.00 93 1017.0
20260906105028 65 0 0.0 2.0 0.00 0.00 0.00 93 1017.0
20260906104529 65 84 1.0 2.0 0.00 0.00 0.00 93 1017.1
20260906104021 64 8 0.0 2.0 0.00 0.00 0.00 93 1017.1
20260906103521 64 352 0.0 2.0 0.00 0.00 0.00 93 1017.0
20260906103021 64 25 0.0 1.0 0.00 0.00 0.00 93 1017.0
20260906102521 64 0 0.0 2.0 0.00 0.00 0.00 93 1017.1
20260906102021 64 0 0.0 2.0 0.00 0.00 0.00 93 1017.1
20260906101753 64 14 0.0 2.0 0.00 0.00 0.00 93 1017.1
20260906101020 64 347 0.0 2.0 0.00 0.00 0.00 93 1017.1
20260906100521 65 0 0.0 2.0 0.00 0.00 0.00 93 1017.0
20260906100022 65 0 0.0 2.0 0.00 0.00 0.00 93 1017.0
20260906095751 65 0 1.0 3.0 0.00 0.00 0.00 93 1017.1
20260906095250 65 17 1.0 3.0 0.00 0.00 0.00 93 1017.1
20260906094518 65 33 0.0 2.0 0.00 0.00 0.00 93 1017.0
20260906094019 65 0 0.0 2.0 0.00 0.00 0.00 93 1016.9
20260906093515 65 319 0.0 2.0 0.00 0.00 0.00 93 1016.9
20260906093248 64 357 0.0 1.0 0.00 0.00 0.00 94 1016.8
20260906092515 64 0 0.0 1.0 0.00 0.00 0.00 94 1016.8
20260906092014 64 0 0.0 1.0 0.00 0.00 0.00 94 1016.7
20260906091746 64 0 0.0 1.0 0.00 0.00 0.00 94 1016.7
20260906091015 64 0 0.0 1.0 0.00 0.00 0.00 94 1016.8
20260906090513 64 339 0.0 1.0 0.00 0.00 0.00 94 1016.9
20260906090012 64 0 0.0 0.0 0.00 0.00 0.00 94 1016.9
20260906085513 65 0 0.0 1.0 0.00 0.00 0.00 94 1016.8
20260906085013 65 0 0.0 1.0 0.00 0.00 0.00 94 1016.8
20260906084519 65 0 0.0 1.0 0.00 0.00 0.00 94 1016.9
20260906084010 65 0 0.0 2.0 0.00 0.00 0.00 94 1016.9
20260906083510 64 0 0.0 2.0 0.00 0.00 0.00 94 1016.9
20260906083010 64 0 0.0 2.0 0.00 0.00 0.00 94 1016.8
20260906082510 64 342 0.0 2.0 0.00 0.00 0.00 94 1016.7
20260906082010 64 0 0.0 1.0 0.00 0.00 0.00 94 1016.7
20260906081511 64 0 0.0 0.0 0.00 0.00 0.00 94 1016.7
20260906081010 64 0 0.0 0.0 0.00 0.00 0.00 94 1016.7
20260906080511 64 0 0.0 1.0 0.00 0.00 0.00 94 1016.7
20260906080241 64 0 0.0 1.0 0.00 0.00 0.00 94 1016.8
20260906075738 64 349 0.0 2.0 0.00 0.00 0.00 93 1016.7
20260906075238 64 0 0.0 2.0 0.00 0.00 0.00 94 1016.8
20260906074739 64 146 0.0 2.0 0.00 0.00 0.00 93 1016.8
20260906074009 64 0 0.0 2.0 0.00 0.00 0.00 93 1016.7
20260906073509 63 0 0.0 2.0 0.00 0.00 0.00 94 1016.7
20260906073009 63 0 0.0 1.0 0.00 0.00 0.00 93 1016.8
20260906072510 63 0 0.0 1.0 0.00 0.00 0.00 93 1016.7
20260906072015 63 0 0.0 2.0 0.00 0.00 0.00 93 1016.6
20260906071509 63 0 0.0 2.0 0.00 0.00 0.00 93 1016.6
20260906071009 63 0 0.0 1.0 0.00 0.00 0.00 93 1016.6
20260906070508 63 0 0.0 1.0 0.00 0.00 0.00 93 1016.6
20260906070008 63 0 0.0 0.0 0.00 0.00 0.00 93 1016.6
20260906065508 63 0 0.0 0.0 0.00 0.00 0.00 93 1016.7
20260906065008 63 0 0.0 0.0 0.00 0.00 0.00 93 1016.7
20260906064509 63 0 0.0 0.0 0.00 0.00 0.00 93 1016.7
20260906064006 63 0 0.0 0.0 0.00 0.00 0.00 93 1016.7
20260906063507 63 0 0.0 0.0 0.00 0.00 0.00 93 1016.7
20260906063007 64 0 0.0 1.0 0.00 0.00 0.00 93 1016.7
20260906062507 64 0 0.0 1.0 0.00 0.00 0.00 93 1016.8
20260906062007 64 0 0.0 1.0 0.00 0.00 0.00 93 1016.8
20260906061507 64 0 0.0 1.0 0.00 0.00 0.00 92 1016.7
20260906061007 64 0 0.0 1.0 0.00 0.00 0.00 92 1016.7
20260906060507 64 180 0.0 1.0 0.00 0.00 0.00 92 1016.7
20260906060007 64 82 0.0 1.0 0.00 0.00 0.00 92 1016.7
20260906055507 64 0 0.0 1.0 0.00 0.00 0.00 92 1016.6
20260906055006 64 240 0.0 0.0 0.00 0.00 0.00 92 1016.6
20260906054507 64 0 0.0 0.0 0.00 0.00 0.00 92 1016.7
20260906054005 64 0 0.0 0.0 0.00 0.00 0.00 92 1016.6
20260906053505 64 0 0.0 0.0 0.00 0.00 0.00 92 1016.6
20260906053005 65 0 0.0 1.0 0.00 0.00 0.00 92 1016.7
20260906052504 64 0 0.0 1.0 0.00 0.00 0.00 92 1016.7
20260906052234 64 311 0.0 1.0 0.00 0.00 0.00 91 1016.5
20260906051504 64 0 0.0 0.0 0.00 0.00 0.00 91 1016.4
20260906051004 64 0 0.0 2.0 0.00 0.00 0.00 91 1016.4
20260906050505 64 0 0.0 2.0 0.00 0.00 0.00 90 1016.3
20260906050004 64 313 0.0 1.0 0.00 0.00 0.00 91 1016.4
20260906045504 64 0 0.0 1.0 0.00 0.00 0.00 90 1016.4
20260906045237 64 0 0.0 1.0 0.00 0.00 0.00 90 1016.4
20260906044505 64 0 0.0 1.0 0.00 0.00 0.00 90 1016.3
20260906044001 64 0 0.0 1.0 0.00 0.00 0.00 90 1016.2
20260906043502 65 0 0.0 1.0 0.00 0.00 0.00 89 1016.1
20260906043002 65 0 0.0 1.0 0.00 0.00 0.00 89 1016.0
20260906042502 65 0 0.0 1.0 0.00 0.00 0.00 89 1016.0
20260906042002 65 0 0.0 1.0 0.00 0.00 0.00 89 1015.9
20260906041734 65 0 0.0 1.0 0.00 0.00 0.00 88 1015.9
20260906041002 65 326 0.0 1.0 0.00 0.00 0.00 88 1015.8
20260906040504 66 0 0.0 1.0 0.00 0.00 0.00 87 1015.8
20260906040002 66 0 0.0 1.0 0.00 0.00 0.00 86 1015.7
20260906035502 66 0 0.0 1.0 0.00 0.00 0.00 86 1015.8
20260906035003 67 0 0.0 1.0 0.00 0.00 0.00 85 1015.9
20260906034501 67 329 0.0 2.0 0.00 0.00 0.00 84 1015.9
20260906034000 67 0 0.0 2.0 0.00 0.00 0.00 83 1015.8
20260906033500 67 7 0.0 2.0 0.00 0.00 0.00 83 1015.7
20260906033000 67 316 0.0 2.0 0.00 0.00 0.00 83 1015.7
20260906032459 67 0 0.0 2.0 0.00 0.00 0.00 83 1015.7
20260906032000 68 36 1.0 2.0 0.00 0.00 0.00 84 1015.6
20260906031501 68 358 1.0 3.0 0.00 0.00 0.00 84 1015.6
20260906031000 68 320 1.0 3.0 0.00 0.00 0.00 86 1015.6
20260906030501 68 10 1.0 3.0 0.00 0.00 0.00 87 1015.6
20260906030000 68 0 1.0 2.0 0.00 0.00 0.00 87 1015.7
20260906025459 68 2 1.0 4.0 0.00 0.00 0.00 87 1015.6
20260906024957 68 356 1.0 4.0 0.00 0.00 0.00 87 1015.6
20260906024459 68 334 1.0 4.0 0.00 0.00 0.00 88 1015.6
20260906023957 68 0 1.0 3.0 0.00 0.00 0.00 88 1015.6
20260906023458 68 18 1.0 3.0 0.00 0.00 0.00 89 1015.6
20260906022959 68 2 1.0 3.0 0.00 0.00 0.00 90 1015.5
20260906022458 68 338 0.0 3.0 0.00 0.00 0.00 90 1015.4
20260906021958 68 18 0.0 2.0 0.00 0.00 0.00 90 1015.4
20260906021458 68 0 0.0 2.0 0.00 0.00 0.00 90 1015.3
20260906020958 68 0 0.0 2.0 0.00 0.00 0.00 90 1015.4
20260906020500 68 331 0.0 2.0 0.00 0.00 0.00 90 1015.3
20260906020000 68 0 0.0 2.0 0.00 0.00 0.00 89 1015.3
20260906015500 68 0 0.0 2.0 0.00 0.00 0.00 89 1015.3
20260906014955 69 342 0.0 2.0 0.00 0.00 0.00 89 1015.4
20260906014453 69 0 0.0 1.0 0.00 0.00 0.00 89 1015.3
20260906013956 69 0 0.0 1.0 0.00 0.00 0.00 88 1015.4
20260906013454 69 0 0.0 2.0 0.00 0.00 0.00 88 1015.4
20260906012954 69 0 0.0 2.0 0.00 0.00 0.00 88 1015.5
20260906012454 69 0 0.0 2.0 0.00 0.00 0.00 88 1015.5
20260906011954 69 0 0.0 3.0 0.00 0.00 0.00 88 1015.4
20260906011455 69 346 1.0 4.0 0.00 0.00 0.00 88 1015.4
20260906010951 69 340 1.0 4.0 0.00 0.00 0.00 88 1015.5
20260906010451 69 340 1.0 3.0 0.00 0.00 0.00 88 1015.6
20260906005948 70 343 0.0 2.0 0.00 0.00 0.00 88 1015.4
20260906005449 70 357 1.0 3.0 0.00 0.00 0.00 87 1015.4
20260906004948 70 8 1.0 3.0 0.00 0.00 0.00 87 1015.5
20260906004448 70 5 1.0 4.0 0.00 0.00 0.00 87 1015.4
20260906003949 70 285 1.0 4.0 0.00 0.00 0.00 87 1015.4
20260906003449 70 19 1.0 2.0 0.00 0.00 0.00 86 1015.4
20260906002949 70 352 1.0 3.0 0.00 0.00 0.00 86 1015.5
20260906002450 71 8 1.0 3.0 0.00 0.00 0.00 86 1015.4
20260906001949 71 37 1.0 5.0 0.00 0.00 0.00 86 1015.4
20260906001450 71 339 1.0 5.0 0.00 0.00 0.00 85 1015.3
20260906000949 71 26 1.0 3.0 0.00 0.00 0.00 85 1015.2
20260906000447 71 352 2.0 7.0 0.00 0.00 0.00 84 1015.1
20260905235945 71 27 2.0 7.0 0.00 0.00 0.00 84 1015.1
20260905235447 72 274 1.0 4.0 0.00 0.00 0.00 84 1015.1
20260905234948 72 160 1.0 4.0 0.00 0.00 0.00 83 1015.1
20260905234446 72 207 1.0 4.0 0.00 0.00 0.00 83 1015.2
20260905233944 72 256 1.0 5.0 0.00 0.00 0.00 83 1015.2
20260905233444 73 346 2.0 7.0 0.00 0.00 0.00 83 1015.2
20260905233215 73 353 1.0 7.0 0.00 0.00 0.00 83 1015.3
20260905232444 73 27 1.0 4.0 0.00 0.00 0.00 82 1015.2
20260905231944 73 349 1.0 4.0 0.00 0.00 0.00 82 1015.2
20260905231445 73 349 2.0 5.0 0.00 0.00 0.00 82 1015.2
20260905230943 73 348 2.0 5.0 0.00 0.00 0.00 81 1015.2
20260905230444 74 0 1.0 4.0 0.00 0.00 0.00 81 1015.2
20260905230214 74 312 2.0 5.0 0.00 0.00 0.00 81 1015.2
20260905225438 74 5 2.0 5.0 0.00 0.00 0.00 81 1015.1
20260905224938 75 19 1.0 4.0 0.00 0.00 0.00 80 1015.0
20260905224702 75 224 1.0 4.0 0.00 0.00 0.00 80 1014.9
20260905223935 75 0 1.0 4.0 0.00 0.00 0.00 79 1014.9
20260905223435 75 9 2.0 5.0 0.00 0.00 0.00 79 1014.9
20260905222935 76 206 2.0 5.0 0.00 0.00 0.00 78 1014.8
20260905222435 76 339 2.0 5.0 0.00 0.00 0.00 76 1014.8
20260905222207 76 138 2.0 5.0 0.00 0.00 0.00 75 1014.8
20260905221435 76 1 2.0 4.0 0.00 0.00 0.00 75 1014.7
20260905220934 76 347 1.0 4.0 0.00 0.00 0.00 75 1014.7
20260905220433 76 341 1.0 5.0 0.00 0.00 0.00 75 1014.7
20260905215933 76 319 2.0 6.0 0.00 0.00 0.00 75 1014.5
20260905215433 77 337 2.0 6.0 0.00 0.00 0.00 75 1014.4
20260905215204 77 288 2.0 7.0 0.00 0.00 0.00 74 1014.4
20260905214434 77 342 2.0 7.0 0.00 0.00 0.00 75 1014.3
20260905213940 78 333 1.0 5.0 0.00 0.00 0.00 74 1014.3
20260905213435 78 349 2.0 4.0 0.00 0.00 0.00 74 1014.3
20260905212934 78 0 1.0 5.0 0.00 0.00 0.00 74 1014.2
20260905212704 78 338 2.0 6.0 0.00 0.00 0.00 75 1014.1
20260905211934 78 154 2.0 6.0 0.00 0.00 0.00 74 1014.2
20260905211434 78 318 2.0 5.0 0.00 0.00 0.00 73 1014.1
20260905210930 78 94 2.0 6.0 0.00 0.00 0.00 74 1014.1
20260905210428 78 142 2.0 6.0 0.00 0.00 0.00 74 1014.1
20260905210203 78 15 2.0 6.0 0.00 0.00 0.00 73 1014.0
20260905205702 78 77 2.0 6.0 0.00 0.00 0.00 74 1013.9
20260905204927 78 346 2.0 6.0 0.00 0.00 0.00 74 1014.0
20260905204701 78 16 2.0 6.0 0.00 0.00 0.00 75 1014.1
20260905203925 79 5 2.0 6.0 0.00 0.00 0.00 75 1014.1
20260905203425 79 21 2.0 4.0 0.00 0.00 0.00 75 1014.1
20260905202925 79 135 2.0 5.0 0.00 0.00 0.00 75 1014.1
20260905202425 79 337 2.0 5.0 0.00 0.00 0.00 75 1014.1
20260905201925 79 14 2.0 5.0 0.00 0.00 0.00 74 1014.1
20260905201425 79 24 2.0 6.0 0.00 0.00 0.00 75 1014.1
20260905200925 80 39 2.0 6.0 0.00 0.00 0.00 76 1014.1
20260905200425 80 20 2.0 6.0 0.00 0.00 0.00 74 1014.2
20260905195925 80 15 3.0 6.0 0.00 0.00 0.00 73 1014.1
20260905195424 81 122 3.0 8.0 0.00 0.00 0.00 70 1014.1
20260905195154 81 15 3.0 8.0 0.00 0.00 0.00 70 1014.1
20260905194420 81 356 3.0 6.0 0.00 0.00 0.00 70 1014.0
20260905193920 81 99 2.0 6.0 0.00 0.00 0.00 69 1014.0
20260905193420 81 342 2.0 6.0 0.00 0.00 0.00 69 1014.1
20260905192920 80 282 2.0 6.0 0.00 0.00 0.00 72 1014.2
20260905192420 81 342 2.0 6.0 0.00 0.00 0.00 70 1014.2
20260905191920 81 64 2.0 6.0 0.00 0.00 0.00 68 1014.2
20260905191422 81 336 2.0 6.0 0.00 0.00 0.00 67 1014.1
20260905191150 80 40 2.0 7.0 0.00 0.00 0.00 69 1014.1
20260905190420 81 353 2.0 7.0 0.00 0.00 0.00 69 1014.2
20260905185920 82 17 2.0 6.0 0.00 0.00 0.00 68 1014.3
20260905185419 82 68 2.0 6.0 0.00 0.00 0.00 67 1014.3
20260905184918 81 335 2.0 5.0 0.00 0.00 0.00 69 1014.2
20260905184418 81 16 2.0 6.0 0.00 0.00 0.00 69 1014.3
20260905183918 81 347 2.0 6.0 0.00 0.00 0.00 71 1014.3
20260905183649 80 352 2.0 6.0 0.00 0.00 0.00 71 1014.3
20260905182919 80 353 2.0 5.0 0.00 0.00 0.00 73 1014.4
20260905182418 80 343 2.0 5.0 0.00 0.00 0.00 74 1014.4
20260905181918 80 16 2.0 5.0 0.00 0.00 0.00 73 1014.4
20260905181418 80 356 2.0 5.0 0.00 0.00 0.00 75 1014.4
20260905180915 80 313 2.0 5.0 0.00 0.00 0.00 74 1014.4
20260905180417 81 80 1.0 5.0 0.00 0.00 0.00 72 1014.4
20260905175917 80 138 1.0 4.0 0.00 0.00 0.00 74 1014.5
20260905175646 80 0 1.0 4.0 0.00 0.00 0.00 76 1014.5
20260905174914 79 348 1.0 3.0 0.00 0.00 0.00 78 1014.4
20260905174415 79 320 1.0 3.0 0.00 0.00 0.00 76 1014.4
20260905173913 78 0 1.0 3.0 0.00 0.00 0.00 78 1014.5
20260905173411 77 123 1.0 3.0 0.00 0.00 0.00 79 1014.7
20260905172911 77 0 1.0 3.0 0.00 0.00 0.00 80 1014.7
20260905172412 77 5 1.0 3.0 0.00 0.00 0.00 80 1014.7
20260905171912 77 15 1.0 3.0 0.00 0.00 0.00 80 1014.7
20260905171644 76 0 1.0 4.0 0.00 0.00 0.00 80 1014.8
20260905170912 77 0 1.0 4.0 0.00 0.00 0.00 80 1014.6
20260905170413 77 81 1.0 4.0 0.00 0.00 0.00 80 1014.7
20260905165913 77 9 1.0 3.0 0.00 0.00 0.00 80 1014.7
20260905165411 77 0 1.0 3.0 0.00 0.00 0.00 80 1014.8
20260905164913 76 0 1.0 3.0 0.00 0.00 0.00 80 1014.8
20260905164413 76 18 0.0 3.0 0.00 0.00 0.00 82 1014.8
20260905163910 76 124 1.0 4.0 0.00 0.00 0.00 82 1014.9
20260905163636 75 330 1.0 4.0 0.00 0.00 0.00 83 1014.9
20260905162906 75 1 1.0 4.0 0.00 0.00 0.00 82 1014.8
20260905162406 75 332 1.0 3.0 0.00 0.00 0.00 84 1014.8
20260905161906 75 39 1.0 4.0 0.00 0.00 0.00 84 1014.8
20260905161406 75 20 2.0 4.0 0.00 0.00 0.00 83 1014.8
20260905160907 75 45 2.0 5.0 0.00 0.00 0.00 83 1014.8
20260905160407 75 13 1.0 5.0 0.00 0.00 0.00 82 1014.8
20260905155907 75 211 1.0 3.0 0.00 0.01 0.00 83 1014.9
20260905155406 75 15 1.0 3.0 0.00 0.01 0.00 83 1014.8
20260905155142 74 0 1.0 6.0 0.00 0.02 0.00 84 1014.8
20260905154404 74 310 2.0 6.0 0.00 0.12 0.00 84 1014.8
20260905153903 74 13 2.0 5.0 0.00 0.13 0.00 85 1014.8
20260905153404 74 355 2.0 5.0 0.00 0.15 0.00 85 1014.7
20260905152906 74 13 2.0 5.0 0.00 0.15 0.00 85 1014.8
20260905152406 74 351 1.0 4.0 0.00 0.15 0.00 85 1014.7
20260905152136 73 0 1.0 3.0 0.00 0.15 0.00 87 1014.8
20260905151406 73 0 1.0 4.0 0.00 0.15 0.00 87 1014.8
20260905150906 73 215 2.0 7.0 0.00 0.15 0.00 88 1014.7
20260905150405 73 13 2.0 7.0 0.00 0.15 0.00 88 1014.6
20260905145906 73 24 1.0 5.0 0.00 0.15 0.00 88 1014.5
20260905145404 73 350 0.0 2.0 0.00 0.15 0.00 88 1014.4
20260905144905 73 0 0.0 4.0 0.00 0.15 0.00 88 1014.5
20260905144402 73 336 1.0 4.0 0.00 0.15 0.00 88 1014.4
20260905143901 73 305 1.0 3.0 0.00 0.15 0.00 88 1014.3
20260905143402 73 337 1.0 3.0 0.00 0.15 0.00 88 1014.3
20260905142859 73 358 1.0 3.0 0.00 0.15 0.00 88 1014.2
20260905142631 73 0 1.0 2.0 0.00 0.15 0.00 88 1014.1
20260905141859 73 264 1.0 3.0 0.00 0.15 0.00 88 1014.1
20260905141359 73 18 1.0 4.0 0.00 0.15 0.00 88 1014.1
20260905140904 73 33 1.0 4.0 0.00 0.15 0.00 88 1014.0
20260905140359 73 357 1.0 3.0 0.00 0.15 0.00 88 1014.0
20260905135859 73 340 1.0 5.0 0.00 0.15 0.00 88 1013.9
20260905135359 73 5 1.0 5.0 0.00 0.15 0.00 88 1013.9
20260905135126 73 315 1.0 4.0 0.00 0.15 0.00 89 1013.9
20260905134354 73 358 1.0 4.0 0.00 0.15 0.00 89 1014.0
20260905133854 73 348 1.0 3.0 0.00 0.15 0.00 89 1014.0
20260905133354 73 36 1.0 4.0 0.00 0.15 0.00 90 1014.0
20260905132854 72 316 1.0 4.0 0.00 0.15 0.00 91 1014.0
20260905132354 72 359 1.0 4.0 0.00 0.15 0.00 92 1014.0
20260905131857 72 0 1.0 3.0 0.00 0.15 0.00 93 1014.2
20260905131627 71 21 1.0 3.0 0.00 0.15 0.00 93 1014.2
20260905130854 71 349 1.0 2.0 0.00 0.15 0.00 93 1014.5
20260905130354 71 0 1.0 3.0 0.00 0.15 0.00 94 1014.7
20260905125854 71 357 0.0 3.0 0.00 0.15 0.00 94 1014.5
20260905125351 71 59 1.0 4.0 0.00 0.15 0.00 94 1014.3
20260905124851 71 0 2.0 5.0 0.00 0.15 0.00 94 1014.2
20260905124349 71 353 2.0 5.0 0.00 0.15 0.00 94 1014.1
20260905123850 71 36 1.0 5.0 0.00 0.15 0.00 94 1014.1
20260905123349 71 351 1.0 3.0 0.00 0.15 0.00 94 1014.0
20260905122849 70 318 1.0 3.0 0.00 0.15 0.00 94 1014.0
20260905122626 70 7 2.0 4.0 0.00 0.15 0.00 94 1013.8
20260905121849 70 347 2.0 4.0 0.00 0.15 0.00 94 1013.7
20260905121350 70 341 1.0 4.0 0.00 0.15 0.00 94 1013.6
20260905120849 70 36 1.0 4.0 0.00 0.15 0.00 95 1013.5
20260905120349 70 0 1.0 3.0 0.00 0.15 0.00 95 1013.5
20260905120113 70 333 1.0 5.0 0.00 0.15 0.00 95 1013.5